Weather History for Oscoda, MI

Change the Weather History Date:

Tuesday, October 15, 2013

  Actual Average Record
Temperature  
Mean Temperature 46 °F -  
Max Temperature 60 °F 55 °F 64 °F (2014)
Min Temperature 33 °F 38 °F 30 °F (2006)
Degree Days  
Heating Degree Days 18    
Moisture  
Dew Point 46 °F    
Average Humidity 88    
Maximum Humidity 97    
Minimum Humidity 68    
Precipitation  
Precipitation 0.37 in - - ()
Sea Level Pressure  
Sea Level Pressure 30.04 in    
Wind  
Wind Speed 4 mph (SSE)    
Max Wind Speed 13 mph    
Max Gust Speed 17 mph    
Visibility 9 miles    
Events Rain    
Averages and records for this station are not official NWS values.
T = Trace of Precipitation, MM = Missing Value Source: NWS Daily Summary

Daily Weather History Graph

Daily Weather History Graph

Search for Another Location

Airport:

Trip Planner

Search our weather history database for the weather conditions in past years. The results will help you decide how hot, cold, wet, or windy it might be!

Date:

Astronomy

Oct. 15, 2013 Rise Set
Actual Time 7:48 AM EDT 6:48 PM EDT
Civil Twilight 7:19 AM EDT 7:18 PM EDT
Nautical Twilight 6:45 AM EDT 7:51 PM EDT
Astronomical Twilight 6:12 AM EDT 8:25 PM EDT
Moon 4:59 PM EDT (10/15) 4:02 AM EDT (10/15)
Length of Visible Light 11h 58m
Length of Day
10h 59m
Waxing Gibbous, 87% of the Moon is Illuminated
Oct 15
Waxing Gibbous
Oct 18
Full
Oct 26
Last Quarter
Nov 3
New
Nov 10
First Quarter

Hourly Weather History & Observations

Time (EDT) Temp. Windchill Dew Point Humidity Pressure Visibility Wind Dir Wind Speed Gust Speed Precip Events Conditions
12:13 AM 35.8 °F 33.0 °F 34.2 °F 94% 30.29 in 10.0 mi West 3.5 mph - N/A   Clear
12:34 AM 34.9 °F - 32.4 °F 91% 30.29 in 10.0 mi Calm Calm - N/A   Clear
12:53 AM 34.5 °F - 32.7 °F 93% 30.28 in 10.0 mi Calm Calm - N/A   Clear
1:13 AM 34.0 °F - 32.2 °F 93% 30.27 in 10.0 mi Calm Calm - N/A   Clear
1:33 AM 33.6 °F - 32.2 °F 94% 30.27 in 10.0 mi Calm Calm - N/A   Clear
1:53 AM 34.7 °F - 33.3 °F 94% 30.26 in 10.0 mi Calm Calm - N/A   Clear
2:14 AM 33.8 °F - 32.2 °F 94% 30.25 in 10.0 mi Calm Calm - N/A   Clear
2:33 AM 34.7 °F - 33.6 °F 96% 30.24 in 10.0 mi Calm Calm - N/A   Clear
2:53 AM 33.8 °F 29.6 °F 32.9 °F 96% 30.24 in 10.0 mi NW 4.6 mph - N/A   Scattered Clouds
3:14 AM 34.7 °F 31.8 °F 33.8 °F 97% 30.23 in 10.0 mi NW 3.5 mph - N/A   Scattered Clouds
3:33 AM 35.4 °F - 34.5 °F 97% 30.22 in 10.0 mi Calm Calm - N/A   Scattered Clouds
3:53 AM 35.2 °F - 34.2 °F 96% 30.22 in 10.0 mi Calm Calm - N/A   Mostly Cloudy
4:14 AM 34.3 °F 31.4 °F 33.3 °F 96% 30.22 in 10.0 mi WNW 3.5 mph - N/A   Scattered Clouds
4:33 AM 33.6 °F 30.6 °F 32.7 °F 96% 30.22 in 10.0 mi NW 3.5 mph - N/A   Clear
4:53 AM 34.7 °F - 33.8 °F 97% 30.21 in 10.0 mi Calm Calm - N/A   Clear
5:14 AM 35.1 °F - 34.3 °F 97% 30.20 in 10.0 mi Calm Calm - N/A   Clear
5:33 AM 35.8 °F - 35.1 °F 97% 30.20 in 10.0 mi Calm Calm - N/A   Clear
5:53 AM 36.0 °F - 35.2 °F 97% 30.19 in 10.0 mi Calm Calm - N/A   Clear
6:14 AM 35.4 °F - 34.5 °F 97% 30.19 in 10.0 mi Calm Calm - N/A   Clear
6:33 AM 35.6 °F 32.8 °F 34.9 °F 97% 30.18 in 10.0 mi North 3.5 mph - N/A   Clear
6:53 AM 36.0 °F - 35.2 °F 97% 30.17 in 10.0 mi Calm Calm - N/A   Clear
7:14 AM 35.2 °F - 34.5 °F 97% 30.17 in 10.0 mi Calm Calm - N/A   Clear
7:33 AM 34.9 °F - 33.4 °F 94% 30.16 in 10.0 mi Calm Calm - N/A   Clear
7:53 AM 36.1 °F - 35.4 °F 97% 30.15 in 10.0 mi Calm Calm - N/A   Clear
8:14 AM 35.8 °F - 34.7 °F 96% 30.15 in 10.0 mi Calm Calm - N/A   Clear
8:33 AM 36.5 °F - 35.6 °F 97% 30.14 in 10.0 mi Calm Calm - N/A   Clear
8:53 AM 37.8 °F - 36.9 °F 97% 30.14 in 10.0 mi Calm Calm - N/A   Clear
9:14 AM 40.1 °F - 39.2 °F 97% 30.14 in 10.0 mi Calm Calm - N/A   Clear
9:33 AM 42.4 °F - 41.0 °F 95% 30.14 in 10.0 mi Calm Calm - N/A   Clear
9:53 AM 45.3 °F - 43.5 °F 93% 30.13 in 10.0 mi Calm Calm - N/A   Clear
10:13 AM 50.0 °F - 46.9 °F 89% 30.13 in 10.0 mi Calm Calm - N/A   Clear
10:33 AM 52.0 °F - 48.7 °F 89% 30.12 in 10.0 mi SW 5.8 mph - N/A   Clear
10:54 AM 53.8 °F - 49.5 °F 85% 30.11 in 10.0 mi SW 5.8 mph - N/A   Clear
11:13 AM 55.0 °F - 48.9 °F 80% 30.10 in 10.0 mi South 3.5 mph - N/A   Clear
11:33 AM 56.1 °F - 48.9 °F 77% 30.10 in 10.0 mi South 3.5 mph - N/A   Clear
11:54 AM 57.4 °F - 49.3 °F 74% 30.09 in 10.0 mi SSE 9.2 mph - N/A   Scattered Clouds
12:13 PM 59.0 °F - 50.2 °F 73% 30.07 in 10.0 mi SE 10.4 mph - N/A   Mostly Cloudy
12:33 PM 59.2 °F - 48.9 °F 69% 30.06 in 10.0 mi SSE 11.5 mph - N/A   Overcast
12:54 PM 60.3 °F - 49.6 °F 68% 30.05 in 10.0 mi ESE 11.5 mph - N/A   Overcast
1:14 PM 59.7 °F - 50.0 °F 70% 30.04 in 10.0 mi SE 6.9 mph - N/A   Scattered Clouds
1:33 PM 59.2 °F - 50.0 °F 72% 30.01 in 10.0 mi SE 12.7 mph - N/A   Clear
1:54 PM 59.5 °F - 50.2 °F 71% 30.01 in 10.0 mi SSE 11.5 mph - N/A   Clear
2:14 PM 59.9 °F - 50.4 °F 71% 30.00 in 10.0 mi SE 11.5 mph 17.3 mph N/A   Clear
2:33 PM 60.1 °F - 50.4 °F 70% 29.99 in 10.0 mi SSE 10.4 mph 16.1 mph N/A   Mostly Cloudy
2:54 PM 60.6 °F - 51.3 °F 71% 29.98 in 10.0 mi SE 8.1 mph - N/A   Overcast
3:13 PM 60.4 °F - 51.1 °F 71% 29.97 in 10.0 mi SE 6.9 mph - N/A   Overcast
3:33 PM 60.3 °F - 51.3 °F 72% 29.96 in 10.0 mi SSE 9.2 mph - N/A   Overcast
3:54 PM 60.1 °F - 51.8 °F 74% 29.93 in 10.0 mi SE 6.9 mph - N/A   Overcast
4:13 PM 60.1 °F - 52.2 °F 75% 29.93 in 10.0 mi SE 4.6 mph - N/A   Scattered Clouds
4:33 PM 59.9 °F - 54.0 °F 81% 29.93 in 10.0 mi ESE 4.6 mph - N/A   Clear
4:54 PM 59.9 °F - 54.1 °F 81% 29.91 in 10.0 mi ESE 4.6 mph - N/A   Mostly Cloudy
5:13 PM 59.9 °F - 55.2 °F 84% 29.90 in 10.0 mi ESE 6.9 mph - N/A   Overcast
5:33 PM 59.9 °F - 55.8 °F 86% 29.89 in 10.0 mi ESE 4.6 mph - N/A   Overcast
5:54 PM 60.3 °F - 56.3 °F 87% 29.88 in 10.0 mi ESE 6.9 mph - N/A   Overcast
6:13 PM 60.4 °F - 55.9 °F 85% 29.87 in 10.0 mi SE 8.1 mph - N/A   Overcast
6:33 PM 60.4 °F - 55.8 °F 85% 29.86 in 10.0 mi SE 11.5 mph 16.1 mph N/A   Overcast
6:54 PM 60.1 °F - 55.9 °F 86% 29.84 in 10.0 mi SE 10.4 mph 16.1 mph N/A   Overcast
7:13 PM 60.4 °F - 55.6 °F 84% 29.84 in 10.0 mi SE 6.9 mph - N/A   Overcast
7:34 PM 60.4 °F - 55.8 °F 85% 29.84 in 10.0 mi SE 6.9 mph - N/A   Overcast
7:54 PM 60.4 °F - 55.6 °F 84% 29.84 in 10.0 mi SE 5.8 mph - N/A   Overcast
8:13 PM 60.1 °F - 56.3 °F 87% 29.84 in 10.0 mi SE 5.8 mph - N/A Rain Rain
8:34 PM 59.0 °F - 56.8 °F 93% 29.82 in 5.0 mi SSE 6.9 mph - 0.06 in Rain Rain
8:54 PM 58.6 °F - 57.2 °F 95% 29.81 in 5.0 mi SSE 9.2 mph - 0.12 in Rain Rain
9:13 PM 58.5 °F - 57.2 °F 96% 29.81 in 3.0 mi SSE 12.7 mph 17.3 mph 0.09 in Rain Heavy Rain
9:34 PM 58.5 °F - 57.2 °F 96% 29.81 in 3.0 mi SSE 11.5 mph - 0.20 in Rain Rain
9:54 PM 58.5 °F - 57.4 °F 96% 29.79 in 5.0 mi South 8.1 mph 17.3 mph 0.21 in Rain Light Rain
10:13 PM 58.8 °F - 57.6 °F 96% 29.79 in 4.0 mi South 8.1 mph 16.1 mph N/A   Light Drizzle
10:34 PM 59.0 °F - 58.1 °F 97% 29.79 in 4.0 mi South 10.4 mph 16.1 mph 0.01 in Rain Light Rain
10:54 PM 59.0 °F - 58.1 °F 97% 29.78 in 4.0 mi South 8.1 mph - 0.04 in Rain Rain
11:13 PM 59.4 °F - 58.3 °F 96% 29.77 in 5.0 mi SSW 12.7 mph - N/A Rain Rain
11:34 PM 59.5 °F - 58.5 °F 96% 29.77 in 5.0 mi SSW 10.4 mph - N/A   Light Drizzle
11:53 PM 59.7 °F - 58.5 °F 96% 29.76 in 4.0 mi SSW 9.2 mph - N/A   Overcast